owner,sensor,date,latitude,longitude,sea_surface_height_above_sea_level,qcFlag 
COMPS,ioos:station:USF.COMPS:FHP:1,2015-10-01T00:12:00Z,28.1530,-82.8010,0.083,1111122 
COMPS,ioos:station:USF.COMPS:FHP:1,2015-10-01T00:24:00Z,28.1530,-82.8010,0.085,1111122 
COMPS,ioos:station:USF.COMPS:FHP:1,2015-10-01T00:30:00Z,28.1530,-82.8010,0.086,1111122 
COMPS,ioos:station:USF.COMPS:FHP:1,2015-10-01T00:42:00Z,28.1530,-82.8010,0.086,1111122 
COMPS,ioos:station:USF.COMPS:FHP:1,2015-10-01T00:48:00Z,28.1530,-82.8010,0.095,1111122 
COMPS,ioos:station:USF.COMPS:FHP:1,2015-10-01T00:54:00Z,28.1530,-82.8010,0.102,1111122 
COMPS,ioos:station:USF.COMPS:FHP:1,2015-10-01T01:00:00Z,28.1530,-82.8010,0.108,1111122 
COMPS,ioos:station:USF.COMPS:FHP:1,2015-10-01T01:06:00Z,28.1530,-82.8010,0.111,1111122 
COMPS,ioos:station:USF.COMPS:FHP:1,2015-10-01T01:12:00Z,28.1530,-82.8010,0.118,1111122 
COMPS,ioos:station:USF.COMPS:FHP:1,2015-10-01T01:18:00Z,28.1530,-82.8010,0.127,1111122 
COMPS,ioos:station:USF.COMPS:FHP:1,2015-10-01T01:24:00Z,28.1530,-82.8010,0.142,1111122 
COMPS,ioos:station:USF.COMPS:FHP:1,2015-10-01T01:30:00Z,28.1530,-82.8010,0.157,1111122 
COMPS,ioos:station:USF.COMPS:FHP:1,2015-10-01T01:36:00Z,28.1530,-82.8010,0.168,1111122 
COMPS,ioos:station:USF.COMPS:FHP:1,2015-10-01T01:42:00Z,28.1530,-82.8010,0.185,1111122 
COMPS,ioos:station:USF.COMPS:FHP:1,2015-10-01T01:48:00Z,28.1530,-82.8010,0.194,1111122 
COMPS,ioos:station:USF.COMPS:FHP:1,2015-10-01T01:54:00Z,28.1530,-82.8010,0.213,1111122 
COMPS,ioos:station:USF.COMPS:FHP:1,2015-10-01T02:00:00Z,28.1530,-82.8010,0.225,1111122 
COMPS,ioos:station:USF.COMPS:FHP:1,2015-10-01T02:06:00Z,28.1530,-82.8010,0.244,1111122 
COMPS,ioos:station:USF.COMPS:FHP:1,2015-10-01T02:12:00Z,28.1530,-82.8010,0.261,1111122 
COMPS,ioos:station:USF.COMPS:FHP:1,2015-10-01T02:18:00Z,28.1530,-82.8010,0.281,1111122 
COMPS,ioos:station:USF.COMPS:FHP:1,2015-10-01T02:24:00Z,28.1530,-82.8010,0.297,1111122 
COMPS,ioos:station:USF.COMPS:FHP:1,2015-10-01T02:30:00Z,28.1530,-82.8010,0.321,1111122 
COMPS,ioos:station:USF.COMPS:FHP:1,2015-10-01T02:36:00Z,28.1530,-82.8010,0.343,1111122 
COMPS,ioos:station:USF.COMPS:FHP:1,2015-10-01T02:42:00Z,28.1530,-82.8010,0.363,1111122 
COMPS,ioos:station:USF.COMPS:FHP:1,2015-10-01T02:48:00Z,28.1530,-82.8010,0.386,1111122 
COMPS,ioos:station:USF.COMPS:FHP:1,2015-10-01T02:54:00Z,28.1530,-82.8010,0.406,1111122 
COMPS,ioos:station:USF.COMPS:FHP:1,2015-10-01T03:00:00Z,28.1530,-82.8010,0.423,1111122 
COMPS,ioos:station:USF.COMPS:FHP:1,2015-10-01T03:06:00Z,28.1530,-82.8010,0.446,1111122 
COMPS,ioos:station:USF.COMPS:FHP:1,2015-10-01T03:12:00Z,28.1530,-82.8010,0.466,1111122 
COMPS,ioos:station:USF.COMPS:FHP:1,2015-10-01T03:18:00Z,28.1530,-82.8010,0.486,1111122 
COMPS,ioos:station:USF.COMPS:FHP:1,2015-10-01T03:24:00Z,28.1530,-82.8010,0.506,1111122 
COMPS,ioos:station:USF.COMPS:FHP:1,2015-10-01T03:30:00Z,28.1530,-82.8010,0.525,1111122 
COMPS,ioos:station:USF.COMPS:FHP:1,2015-10-01T03:36:00Z,28.1530,-82.8010,0.549,1111122 
COMPS,ioos:station:USF.COMPS:FHP:1,2015-10-01T03:42:00Z,28.1530,-82.8010,0.569,1111122 
COMPS,ioos:station:USF.COMPS:FHP:1,2015-10-01T03:48:00Z,28.1530,-82.8010,0.586,1111122 
COMPS,ioos:station:USF.COMPS:FHP:1,2015-10-01T03:54:00Z,28.1530,-82.8010,0.605,1111122 
COMPS,ioos:station:USF.COMPS:FHP:1,2015-10-01T04:00:00Z,28.1530,-82.8010,0.627,1111122 
COMPS,ioos:station:USF.COMPS:FHP:1,2015-10-01T04:06:00Z,28.1530,-82.8010,0.651,1111122 
COMPS,ioos:station:USF.COMPS:FHP:1,2015-10-01T04:12:00Z,28.1530,-82.8010,0.67,1111122 
COMPS,ioos:station:USF.COMPS:FHP:1,2015-10-01T04:18:00Z,28.1530,-82.8010,0.691,1111122 
COMPS,ioos:station:USF.COMPS:FHP:1,2015-10-01T04:24:00Z,28.1530,-82.8010,0.707,1111122 
COMPS,ioos:station:USF.COMPS:FHP:1,2015-10-01T04:30:00Z,28.1530,-82.8010,0.728,1111122 
COMPS,ioos:station:USF.COMPS:FHP:1,2015-10-01T04:36:00Z,28.1530,-82.8010,0.742,1111122 
COMPS,ioos:station:USF.COMPS:FHP:1,2015-10-01T04:42:00Z,28.1530,-82.8010,0.757,1111122 
COMPS,ioos:station:USF.COMPS:FHP:1,2015-10-01T04:48:00Z,28.1530,-82.8010,0.773,1111122 
COMPS,ioos:station:USF.COMPS:FHP:1,2015-10-01T04:54:00Z,28.1530,-82.8010,0.785,1111122 
COMPS,ioos:station:USF.COMPS:FHP:1,2015-10-01T05:00:00Z,28.1530,-82.8010,0.804,1111122 
COMPS,ioos:station:USF.COMPS:FHP:1,2015-10-01T05:06:00Z,28.1530,-82.8010,0.8,1111122 
COMPS,ioos:station:USF.COMPS:FHP:1,2015-10-01T05:12:00Z,28.1530,-82.8010,0.807,1111122 
COMPS,ioos:station:USF.COMPS:FHP:1,2015-10-01T05:18:00Z,28.1530,-82.8010,0.812,1111122 
COMPS,ioos:station:USF.COMPS:FHP:1,2015-10-01T05:24:00Z,28.1530,-82.8010,0.826,1111122 
COMPS,ioos:station:USF.COMPS:FHP:1,2015-10-01T05:30:00Z,28.1530,-82.8010,0.828,1111122 
COMPS,ioos:station:USF.COMPS:FHP:1,2015-10-01T05:36:00Z,28.1530,-82.8010,0.83,1111122 
COMPS,ioos:station:USF.COMPS:FHP:1,2015-10-01T05:42:00Z,28.1530,-82.8010,0.831,1111122 
COMPS,ioos:station:USF.COMPS:FHP:1,2015-10-01T05:48:00Z,28.1530,-82.8010,0.833,1111122 
COMPS,ioos:station:USF.COMPS:FHP:1,2015-10-01T05:54:00Z,28.1530,-82.8010,0.837,1111122 
COMPS,ioos:station:USF.COMPS:FHP:1,2015-10-01T06:00:00Z,28.1530,-82.8010,0.837,1111122 
COMPS,ioos:station:USF.COMPS:FHP:1,2015-10-01T06:06:00Z,28.1530,-82.8010,0.842,1111122 
COMPS,ioos:station:USF.COMPS:FHP:1,2015-10-01T06:12:00Z,28.1530,-82.8010,0.836,1111122 
COMPS,ioos:station:USF.COMPS:FHP:1,2015-10-01T06:18:00Z,28.1530,-82.8010,0.831,1111122 
COMPS,ioos:station:USF.COMPS:FHP:1,2015-10-01T06:24:00Z,28.1530,-82.8010,0.828,1111122 
COMPS,ioos:station:USF.COMPS:FHP:1,2015-10-01T06:30:00Z,28.1530,-82.8010,0.82,1111122 
COMPS,ioos:station:USF.COMPS:FHP:1,2015-10-01T06:36:00Z,28.1530,-82.8010,0.812,1111122 
COMPS,ioos:station:USF.COMPS:FHP:1,2015-10-01T06:42:00Z,28.1530,-82.8010,0.806,1111122 
COMPS,ioos:station:USF.COMPS:FHP:1,2015-10-01T06:48:00Z,28.1530,-82.8010,0.803,1111122 
COMPS,ioos:station:USF.COMPS:FHP:1,2015-10-01T06:54:00Z,28.1530,-82.8010,0.798,1111122 
COMPS,ioos:station:USF.COMPS:FHP:1,2015-10-01T07:00:00Z,28.1530,-82.8010,0.786,1111122 
COMPS,ioos:station:USF.COMPS:FHP:1,2015-10-01T07:06:00Z,28.1530,-82.8010,0.785,1111122 
COMPS,ioos:station:USF.COMPS:FHP:1,2015-10-01T07:12:00Z,28.1530,-82.8010,0.778,1111122 
COMPS,ioos:station:USF.COMPS:FHP:1,2015-10-01T07:18:00Z,28.1530,-82.8010,0.767,1111122 
COMPS,ioos:station:USF.COMPS:FHP:1,2015-10-01T07:24:00Z,28.1530,-82.8010,0.762,1111122 
COMPS,ioos:station:USF.COMPS:FHP:1,2015-10-01T07:30:00Z,28.1530,-82.8010,0.745,1111122 
COMPS,ioos:station:USF.COMPS:FHP:1,2015-10-01T07:36:00Z,28.1530,-82.8010,0.746,1111122 
COMPS,ioos:station:USF.COMPS:FHP:1,2015-10-01T07:42:00Z,28.1530,-82.8010,0.724,1111122 
COMPS,ioos:station:USF.COMPS:FHP:1,2015-10-01T07:48:00Z,28.1530,-82.8010,0.718,1111122 
COMPS,ioos:station:USF.COMPS:FHP:1,2015-10-01T07:54:00Z,28.1530,-82.8010,0.702,1111122 
COMPS,ioos:station:USF.COMPS:FHP:1,2015-10-01T08:00:00Z,28.1530,-82.8010,0.69,1111122 
COMPS,ioos:station:USF.COMPS:FHP:1,2015-10-01T08:06:00Z,28.1530,-82.8010,0.676,1111122 
COMPS,ioos:station:USF.COMPS:FHP:1,2015-10-01T08:12:00Z,28.1530,-82.8010,0.664,1111122 
COMPS,ioos:station:USF.COMPS:FHP:1,2015-10-01T08:18:00Z,28.1530,-82.8010,0.645,1111122 
COMPS,ioos:station:USF.COMPS:FHP:1,2015-10-01T08:24:00Z,28.1530,-82.8010,0.632,1111122 
COMPS,ioos:station:USF.COMPS:FHP:1,2015-10-01T08:30:00Z,28.1530,-82.8010,0.614,1111122 
COMPS,ioos:station:USF.COMPS:FHP:1,2015-10-01T08:36:00Z,28.1530,-82.8010,0.595,1111122 
COMPS,ioos:station:USF.COMPS:FHP:1,2015-10-01T08:42:00Z,28.1530,-82.8010,0.576,1111122 
COMPS,ioos:station:USF.COMPS:FHP:1,2015-10-01T08:48:00Z,28.1530,-82.8010,0.557,1111122 
COMPS,ioos:station:USF.COMPS:FHP:1,2015-10-01T08:54:00Z,28.1530,-82.8010,0.543,1111122 
COMPS,ioos:station:USF.COMPS:FHP:1,2015-10-01T09:00:00Z,28.1530,-82.8010,0.523,1111122 
COMPS,ioos:station:USF.COMPS:FHP:1,2015-10-01T09:06:00Z,28.1530,-82.8010,0.509,1111122 
COMPS,ioos:station:USF.COMPS:FHP:1,2015-10-01T09:12:00Z,28.1530,-82.8010,0.49,1111122 
COMPS,ioos:station:USF.COMPS:FHP:1,2015-10-01T09:18:00Z,28.1530,-82.8010,0.467,1111122 
COMPS,ioos:station:USF.COMPS:FHP:1,2015-10-01T09:24:00Z,28.1530,-82.8010,0.449,1111122 
COMPS,ioos:station:USF.COMPS:FHP:1,2015-10-01T09:30:00Z,28.1530,-82.8010,0.431,1111122 
COMPS,ioos:station:USF.COMPS:FHP:1,2015-10-01T09:36:00Z,28.1530,-82.8010,0.41,1111122 
COMPS,ioos:station:USF.COMPS:FHP:1,2015-10-01T09:42:00Z,28.1530,-82.8010,0.386,1111122 
COMPS,ioos:station:USF.COMPS:FHP:1,2015-10-01T09:48:00Z,28.1530,-82.8010,0.369,1111122 
COMPS,ioos:station:USF.COMPS:FHP:1,2015-10-01T09:54:00Z,28.1530,-82.8010,0.339,1111122 
COMPS,ioos:station:USF.COMPS:FHP:1,2015-10-01T10:00:00Z,28.1530,-82.8010,0.321,1111122 
COMPS,ioos:station:USF.COMPS:FHP:1,2015-10-01T10:06:00Z,28.1530,-82.8010,0.302,1111122 
COMPS,ioos:station:USF.COMPS:FHP:1,2015-10-01T10:12:00Z,28.1530,-82.8010,0.278,1111122 
COMPS,ioos:station:USF.COMPS:FHP:1,2015-10-01T10:18:00Z,28.1530,-82.8010,0.255,1111122 
COMPS,ioos:station:USF.COMPS:FHP:1,2015-10-01T10:24:00Z,28.1530,-82.8010,0.23,1111122 
COMPS,ioos:station:USF.COMPS:FHP:1,2015-10-01T10:30:00Z,28.1530,-82.8010,0.211,1111122 
COMPS,ioos:station:USF.COMPS:FHP:1,2015-10-01T10:36:00Z,28.1530,-82.8010,0.187,1111122 
COMPS,ioos:station:USF.COMPS:FHP:1,2015-10-01T10:42:00Z,28.1530,-82.8010,0.168,1111122 
COMPS,ioos:station:USF.COMPS:FHP:1,2015-10-01T10:48:00Z,28.1530,-82.8010,0.146,1111122 
COMPS,ioos:station:USF.COMPS:FHP:1,2015-10-01T10:54:00Z,28.1530,-82.8010,0.121,1111122 
COMPS,ioos:station:USF.COMPS:FHP:1,2015-10-01T11:00:00Z,28.1530,-82.8010,0.097,1111122 
COMPS,ioos:station:USF.COMPS:FHP:1,2015-10-01T11:06:00Z,28.1530,-82.8010,0.078,1111122 
COMPS,ioos:station:USF.COMPS:FHP:1,2015-10-01T11:12:00Z,28.1530,-82.8010,0.06,1111122 
COMPS,ioos:station:USF.COMPS:FHP:1,2015-10-01T11:18:00Z,28.1530,-82.8010,0.04,1111122 
COMPS,ioos:station:USF.COMPS:FHP:1,2015-10-01T11:24:00Z,28.1530,-82.8010,0.017,1111122 
COMPS,ioos:station:USF.COMPS:FHP:1,2015-10-01T11:30:00Z,28.1530,-82.8010,-0.003,1111122 
COMPS,ioos:station:USF.COMPS:FHP:1,2015-10-01T11:36:00Z,28.1530,-82.8010,-0.02,1111122 
COMPS,ioos:station:USF.COMPS:FHP:1,2015-10-01T11:42:00Z,28.1530,-82.8010,-0.038,1111122 
COMPS,ioos:station:USF.COMPS:FHP:1,2015-10-01T11:48:00Z,28.1530,-82.8010,-0.057,1111122 
COMPS,ioos:station:USF.COMPS:FHP:1,2015-10-01T11:54:00Z,28.1530,-82.8010,-0.076,1111122 
COMPS,ioos:station:USF.COMPS:FHP:1,2015-10-01T12:00:00Z,28.1530,-82.8010,-0.094,1111122 
COMPS,ioos:station:USF.COMPS:FHP:1,2015-10-01T12:06:00Z,28.1530,-82.8010,-0.114,1111122 
COMPS,ioos:station:USF.COMPS:FHP:1,2015-10-01T12:12:00Z,28.1530,-82.8010,-0.13,1111122 
COMPS,ioos:station:USF.COMPS:FHP:1,2015-10-01T12:18:00Z,28.1530,-82.8010,-0.147,1111122 
COMPS,ioos:station:USF.COMPS:FHP:1,2015-10-01T12:30:00Z,28.1530,-82.8010,-0.172,1111122 
COMPS,ioos:station:USF.COMPS:FHP:1,2015-10-01T12:36:00Z,28.1530,-82.8010,-0.189,1111122 
COMPS,ioos:station:USF.COMPS:FHP:1,2015-10-01T12:48:00Z,28.1530,-82.8010,-0.209,1111122 
COMPS,ioos:station:USF.COMPS:FHP:1,2015-10-01T12:54:00Z,28.1530,-82.8010,-0.216,1111122 
COMPS,ioos:station:USF.COMPS:FHP:1,2015-10-01T13:00:00Z,28.1530,-82.8010,-0.216,1111122 
COMPS,ioos:station:USF.COMPS:FHP:1,2015-10-01T13:06:00Z,28.1530,-82.8010,-0.233,1111122 
COMPS,ioos:station:USF.COMPS:FHP:1,2015-10-01T13:12:00Z,28.1530,-82.8010,-0.24,1111122 
COMPS,ioos:station:USF.COMPS:FHP:1,2015-10-01T13:18:00Z,28.1530,-82.8010,-0.241,1111122 
COMPS,ioos:station:USF.COMPS:FHP:1,2015-10-01T13:24:00Z,28.1530,-82.8010,-0.243,1111122 
COMPS,ioos:station:USF.COMPS:FHP:1,2015-10-01T13:30:00Z,28.1530,-82.8010,-0.243,1111122 
COMPS,ioos:station:USF.COMPS:FHP:1,2015-10-01T13:36:00Z,28.1530,-82.8010,-0.25,1111122 
COMPS,ioos:station:USF.COMPS:FHP:1,2015-10-01T13:42:00Z,28.1530,-82.8010,-0.251,1111122 
COMPS,ioos:station:USF.COMPS:FHP:1,2015-10-01T13:48:00Z,28.1530,-82.8010,-0.24,1111122 
COMPS,ioos:station:USF.COMPS:FHP:1,2015-10-01T13:54:00Z,28.1530,-82.8010,-0.227,1111122 
COMPS,ioos:station:USF.COMPS:FHP:1,2015-10-01T14:00:00Z,28.1530,-82.8010,-0.22,1111122 
COMPS,ioos:station:USF.COMPS:FHP:1,2015-10-01T14:06:00Z,28.1530,-82.8010,-0.217,1111122 
COMPS,ioos:station:USF.COMPS:FHP:1,2015-10-01T14:12:00Z,28.1530,-82.8010,-0.21,1111122 
COMPS,ioos:station:USF.COMPS:FHP:1,2015-10-01T14:18:00Z,28.1530,-82.8010,-0.206,1111122 
COMPS,ioos:station:USF.COMPS:FHP:1,2015-10-01T14:24:00Z,28.1530,-82.8010,-0.188,1111122 
COMPS,ioos:station:USF.COMPS:FHP:1,2015-10-01T14:30:00Z,28.1530,-82.8010,-0.173,1111122 
COMPS,ioos:station:USF.COMPS:FHP:1,2015-10-01T14:36:00Z,28.1530,-82.8010,-0.159,1111122 
COMPS,ioos:station:USF.COMPS:FHP:1,2015-10-01T14:42:00Z,28.1530,-82.8010,-0.146,1111122 
COMPS,ioos:station:USF.COMPS:FHP:1,2015-10-01T14:48:00Z,28.1530,-82.8010,-0.128,1111122 
COMPS,ioos:station:USF.COMPS:FHP:1,2015-10-01T14:54:00Z,28.1530,-82.8010,-0.113,1111122 
COMPS,ioos:station:USF.COMPS:FHP:1,2015-10-01T15:00:00Z,28.1530,-82.8010,-0.093,1111122 
COMPS,ioos:station:USF.COMPS:FHP:1,2015-10-01T15:06:00Z,28.1530,-82.8010,-0.075,1111122 
COMPS,ioos:station:USF.COMPS:FHP:1,2015-10-01T15:12:00Z,28.1530,-82.8010,-0.056,1111122 
COMPS,ioos:station:USF.COMPS:FHP:1,2015-10-01T15:18:00Z,28.1530,-82.8010,-0.037,1111122 
COMPS,ioos:station:USF.COMPS:FHP:1,2015-10-01T15:24:00Z,28.1530,-82.8010,-0.016,1111122 
COMPS,ioos:station:USF.COMPS:FHP:1,2015-10-01T15:30:00Z,28.1530,-82.8010,0.003,1111122 
COMPS,ioos:station:USF.COMPS:FHP:1,2015-10-01T15:36:00Z,28.1530,-82.8010,0.027,1111122 
COMPS,ioos:station:USF.COMPS:FHP:1,2015-10-01T15:42:00Z,28.1530,-82.8010,0.052,1111122 
COMPS,ioos:station:USF.COMPS:FHP:1,2015-10-01T15:48:00Z,28.1530,-82.8010,0.075,1111122 
COMPS,ioos:station:USF.COMPS:FHP:1,2015-10-01T15:54:00Z,28.1530,-82.8010,0.104,1111122 
COMPS,ioos:station:USF.COMPS:FHP:1,2015-10-01T16:00:00Z,28.1530,-82.8010,0.125,1111122 
COMPS,ioos:station:USF.COMPS:FHP:1,2015-10-01T16:06:00Z,28.1530,-82.8010,0.15,1111122 
COMPS,ioos:station:USF.COMPS:FHP:1,2015-10-01T16:12:00Z,28.1530,-82.8010,0.175,1111122 
COMPS,ioos:station:USF.COMPS:FHP:1,2015-10-01T16:18:00Z,28.1530,-82.8010,0.205,1111122 
COMPS,ioos:station:USF.COMPS:FHP:1,2015-10-01T16:24:00Z,28.1530,-82.8010,0.231,1111122 
COMPS,ioos:station:USF.COMPS:FHP:1,2015-10-01T16:30:00Z,28.1530,-82.8010,0.26,1111122 
COMPS,ioos:station:USF.COMPS:FHP:1,2015-10-01T16:36:00Z,28.1530,-82.8010,0.287,1111122 
COMPS,ioos:station:USF.COMPS:FHP:1,2015-10-01T16:42:00Z,28.1530,-82.8010,0.311,1111122 
COMPS,ioos:station:USF.COMPS:FHP:1,2015-10-01T16:48:00Z,28.1530,-82.8010,0.333,1111122 
COMPS,ioos:station:USF.COMPS:FHP:1,2015-10-01T16:54:00Z,28.1530,-82.8010,0.351,1111122 
COMPS,ioos:station:USF.COMPS:FHP:1,2015-10-01T17:00:00Z,28.1530,-82.8010,0.371,1111122 
COMPS,ioos:station:USF.COMPS:FHP:1,2015-10-01T17:06:00Z,28.1530,-82.8010,0.389,1111122 
COMPS,ioos:station:USF.COMPS:FHP:1,2015-10-01T17:12:00Z,28.1530,-82.8010,0.407,1111122 
COMPS,ioos:station:USF.COMPS:FHP:1,2015-10-01T17:18:00Z,28.1530,-82.8010,0.428,1111122 
COMPS,ioos:station:USF.COMPS:FHP:1,2015-10-01T17:24:00Z,28.1530,-82.8010,0.445,1111122 
COMPS,ioos:station:USF.COMPS:FHP:1,2015-10-01T17:30:00Z,28.1530,-82.8010,0.461,1111122 
COMPS,ioos:station:USF.COMPS:FHP:1,2015-10-01T17:36:00Z,28.1530,-82.8010,0.478,1111122 
COMPS,ioos:station:USF.COMPS:FHP:1,2015-10-01T17:42:00Z,28.1530,-82.8010,0.491,1111122 
COMPS,ioos:station:USF.COMPS:FHP:1,2015-10-01T17:48:00Z,28.1530,-82.8010,0.511,1111122 
COMPS,ioos:station:USF.COMPS:FHP:1,2015-10-01T17:54:00Z,28.1530,-82.8010,0.525,1111122 
COMPS,ioos:station:USF.COMPS:FHP:1,2015-10-01T18:00:00Z,28.1530,-82.8010,0.536,1111122 
COMPS,ioos:station:USF.COMPS:FHP:1,2015-10-01T18:06:00Z,28.1530,-82.8010,0.549,1111122 
COMPS,ioos:station:USF.COMPS:FHP:1,2015-10-01T18:12:00Z,28.1530,-82.8010,0.556,1111122 
COMPS,ioos:station:USF.COMPS:FHP:1,2015-10-01T18:18:00Z,28.1530,-82.8010,0.577,1111122 
COMPS,ioos:station:USF.COMPS:FHP:1,2015-10-01T18:24:00Z,28.1530,-82.8010,0.58,1111122 
COMPS,ioos:station:USF.COMPS:FHP:1,2015-10-01T18:30:00Z,28.1530,-82.8010,0.588,1111122 
COMPS,ioos:station:USF.COMPS:FHP:1,2015-10-01T18:36:00Z,28.1530,-82.8010,0.598,1111122 
COMPS,ioos:station:USF.COMPS:FHP:1,2015-10-01T18:42:00Z,28.1530,-82.8010,0.612,1111122 
COMPS,ioos:station:USF.COMPS:FHP:1,2015-10-01T18:48:00Z,28.1530,-82.8010,0.608,1111122 
COMPS,ioos:station:USF.COMPS:FHP:1,2015-10-01T18:54:00Z,28.1530,-82.8010,0.615,1111122 
COMPS,ioos:station:USF.COMPS:FHP:1,2015-10-01T19:00:00Z,28.1530,-82.8010,0.616,1111122 
COMPS,ioos:station:USF.COMPS:FHP:1,2015-10-01T19:06:00Z,28.1530,-82.8010,0.615,1111122 
COMPS,ioos:station:USF.COMPS:FHP:1,2015-10-01T19:12:00Z,28.1530,-82.8010,0.618,1111122 
COMPS,ioos:station:USF.COMPS:FHP:1,2015-10-01T19:18:00Z,28.1530,-82.8010,0.618,1111122 
COMPS,ioos:station:USF.COMPS:FHP:1,2015-10-01T19:24:00Z,28.1530,-82.8010,0.608,1111122 
COMPS,ioos:station:USF.COMPS:FHP:1,2015-10-01T19:30:00Z,28.1530,-82.8010,0.615,1111122 
COMPS,ioos:station:USF.COMPS:FHP:1,2015-10-01T19:36:00Z,28.1530,-82.8010,0.611,1111122 
COMPS,ioos:station:USF.COMPS:FHP:1,2015-10-01T19:42:00Z,28.1530,-82.8010,0.609,1111122 
COMPS,ioos:station:USF.COMPS:FHP:1,2015-10-01T19:48:00Z,28.1530,-82.8010,0.607,1111122 
COMPS,ioos:station:USF.COMPS:FHP:1,2015-10-01T19:54:00Z,28.1530,-82.8010,0.604,1111122 
COMPS,ioos:station:USF.COMPS:FHP:1,2015-10-01T20:00:00Z,28.1530,-82.8010,0.598,1111122 
COMPS,ioos:station:USF.COMPS:FHP:1,2015-10-01T20:06:00Z,28.1530,-82.8010,0.594,1111122 
COMPS,ioos:station:USF.COMPS:FHP:1,2015-10-01T20:12:00Z,28.1530,-82.8010,0.588,1111122 
COMPS,ioos:station:USF.COMPS:FHP:1,2015-10-01T20:18:00Z,28.1530,-82.8010,0.591,1111122 
COMPS,ioos:station:USF.COMPS:FHP:1,2015-10-01T20:24:00Z,28.1530,-82.8010,0.581,1111122 
COMPS,ioos:station:USF.COMPS:FHP:1,2015-10-01T20:30:00Z,28.1530,-82.8010,0.579,1111122 
COMPS,ioos:station:USF.COMPS:FHP:1,2015-10-01T20:36:00Z,28.1530,-82.8010,0.579,1111122 
COMPS,ioos:station:USF.COMPS:FHP:1,2015-10-01T20:42:00Z,28.1530,-82.8010,0.571,1111122 
COMPS,ioos:station:USF.COMPS:FHP:1,2015-10-01T20:48:00Z,28.1530,-82.8010,0.557,1111122 
COMPS,ioos:station:USF.COMPS:FHP:1,2015-10-01T20:54:00Z,28.1530,-82.8010,0.544,1111122 
COMPS,ioos:station:USF.COMPS:FHP:1,2015-10-01T21:00:00Z,28.1530,-82.8010,0.538,1111122 
COMPS,ioos:station:USF.COMPS:FHP:1,2015-10-01T21:06:00Z,28.1530,-82.8010,0.519,1111122 
COMPS,ioos:station:USF.COMPS:FHP:1,2015-10-01T21:12:00Z,28.1530,-82.8010,0.508,1111122 
COMPS,ioos:station:USF.COMPS:FHP:1,2015-10-01T21:18:00Z,28.1530,-82.8010,0.497,1111122 
COMPS,ioos:station:USF.COMPS:FHP:1,2015-10-01T21:24:00Z,28.1530,-82.8010,0.485,1111122 
COMPS,ioos:station:USF.COMPS:FHP:1,2015-10-01T21:30:00Z,28.1530,-82.8010,0.47,1111122 
COMPS,ioos:station:USF.COMPS:FHP:1,2015-10-01T21:36:00Z,28.1530,-82.8010,0.455,1111122 
COMPS,ioos:station:USF.COMPS:FHP:1,2015-10-01T21:42:00Z,28.1530,-82.8010,0.45,1111122 
COMPS,ioos:station:USF.COMPS:FHP:1,2015-10-01T21:48:00Z,28.1530,-82.8010,0.437,1111122 
COMPS,ioos:station:USF.COMPS:FHP:1,2015-10-01T21:54:00Z,28.1530,-82.8010,0.426,1111122 
COMPS,ioos:station:USF.COMPS:FHP:1,2015-10-01T22:00:00Z,28.1530,-82.8010,0.414,1111122 
COMPS,ioos:station:USF.COMPS:FHP:1,2015-10-01T22:06:00Z,28.1530,-82.8010,0.403,1111122 
COMPS,ioos:station:USF.COMPS:FHP:1,2015-10-01T22:12:00Z,28.1530,-82.8010,0.396,1111122 
COMPS,ioos:station:USF.COMPS:FHP:1,2015-10-01T22:18:00Z,28.1530,-82.8010,0.378,1111122 
COMPS,ioos:station:USF.COMPS:FHP:1,2015-10-01T22:24:00Z,28.1530,-82.8010,0.364,1111122 
COMPS,ioos:station:USF.COMPS:FHP:1,2015-10-01T22:30:00Z,28.1530,-82.8010,0.349,1111122 
COMPS,ioos:station:USF.COMPS:FHP:1,2015-10-01T22:36:00Z,28.1530,-82.8010,0.331,1111122 
COMPS,ioos:station:USF.COMPS:FHP:1,2015-10-01T22:42:00Z,28.1530,-82.8010,0.322,1111122 
COMPS,ioos:station:USF.COMPS:FHP:1,2015-10-01T22:48:00Z,28.1530,-82.8010,0.312,1111122 
COMPS,ioos:station:USF.COMPS:FHP:1,2015-10-01T22:54:00Z,28.1530,-82.8010,0.299,1111122 
COMPS,ioos:station:USF.COMPS:FHP:1,2015-10-01T23:00:00Z,28.1530,-82.8010,0.289,1111122 
COMPS,ioos:station:USF.COMPS:FHP:1,2015-10-01T23:12:00Z,28.1530,-82.8010,0.272,1111122 
COMPS,ioos:station:USF.COMPS:FHP:1,2015-10-01T23:18:00Z,28.1530,-82.8010,0.262,1111122 
COMPS,ioos:station:USF.COMPS:FHP:1,2015-10-01T23:24:00Z,28.1530,-82.8010,0.251,1111122 
COMPS,ioos:station:USF.COMPS:FHP:1,2015-10-01T23:30:00Z,28.1530,-82.8010,0.237,1111122 
COMPS,ioos:station:USF.COMPS:FHP:1,2015-10-01T23:36:00Z,28.1530,-82.8010,0.229,1111122 
COMPS,ioos:station:USF.COMPS:FHP:1,2015-10-01T23:48:00Z,28.1530,-82.8010,0.214,1111122 
COMPS,ioos:station:USF.COMPS:FHP:1,2015-10-01T23:54:00Z,28.1530,-82.8010,0.2,1111122 
COMPS,ioos:station:USF.COMPS:FHP:1,2015-10-02T00:00:00Z,28.1530,-82.8010,0.194,1111122 
COMPS,ioos:station:USF.COMPS:FHP:1,2015-10-02T00:12:00Z,28.1530,-82.8010,0.177,1111122 
COMPS,ioos:station:USF.COMPS:FHP:1,2015-10-02T00:18:00Z,28.1530,-82.8010,0.173,1111122 
COMPS,ioos:station:USF.COMPS:FHP:1,2015-10-02T00:30:00Z,28.1530,-82.8010,0.17,1111122 
COMPS,ioos:station:USF.COMPS:FHP:1,2015-10-02T00:36:00Z,28.1530,-82.8010,0.168,1111122 
COMPS,ioos:station:USF.COMPS:FHP:1,2015-10-02T00:42:00Z,28.1530,-82.8010,0.163,1111122 
COMPS,ioos:station:USF.COMPS:FHP:1,2015-10-02T00:48:00Z,28.1530,-82.8010,0.166,1111122 
COMPS,ioos:station:USF.COMPS:FHP:1,2015-10-02T00:54:00Z,28.1530,-82.8010,0.16,1111122 
COMPS,ioos:station:USF.COMPS:FHP:1,2015-10-02T01:00:00Z,28.1530,-82.8010,0.17,1111122 
COMPS,ioos:station:USF.COMPS:FHP:1,2015-10-02T01:06:00Z,28.1530,-82.8010,0.169,1111122 
COMPS,ioos:station:USF.COMPS:FHP:1,2015-10-02T01:12:00Z,28.1530,-82.8010,0.163,1111122 
COMPS,ioos:station:USF.COMPS:FHP:1,2015-10-02T01:18:00Z,28.1530,-82.8010,0.176,1111122 
COMPS,ioos:station:USF.COMPS:FHP:1,2015-10-02T01:30:00Z,28.1530,-82.8010,0.18,1111122 
COMPS,ioos:station:USF.COMPS:FHP:1,2015-10-02T01:48:00Z,28.1530,-82.8010,0.195,1111122 
COMPS,ioos:station:USF.COMPS:FHP:1,2015-10-02T01:54:00Z,28.1530,-82.8010,0.197,1111122 
COMPS,ioos:station:USF.COMPS:FHP:1,2015-10-02T02:00:00Z,28.1530,-82.8010,0.204,1111122 
COMPS,ioos:station:USF.COMPS:FHP:1,2015-10-02T02:06:00Z,28.1530,-82.8010,0.208,1111122 
COMPS,ioos:station:USF.COMPS:FHP:1,2015-10-02T02:12:00Z,28.1530,-82.8010,0.214,1111122 
COMPS,ioos:station:USF.COMPS:FHP:1,2015-10-02T02:18:00Z,28.1530,-82.8010,0.221,1111122 
COMPS,ioos:station:USF.COMPS:FHP:1,2015-10-02T02:24:00Z,28.1530,-82.8010,0.235,1111122 
COMPS,ioos:station:USF.COMPS:FHP:1,2015-10-02T02:30:00Z,28.1530,-82.8010,0.248,1111122 
COMPS,ioos:station:USF.COMPS:FHP:1,2015-10-02T02:36:00Z,28.1530,-82.8010,0.256,1111122 
COMPS,ioos:station:USF.COMPS:FHP:1,2015-10-02T02:42:00Z,28.1530,-82.8010,0.268,1111122 
COMPS,ioos:station:USF.COMPS:FHP:1,2015-10-02T02:54:00Z,28.1530,-82.8010,0.289,1111122 
COMPS,ioos:station:USF.COMPS:FHP:1,2015-10-02T03:00:00Z,28.1530,-82.8010,0.307,1111122 
COMPS,ioos:station:USF.COMPS:FHP:1,2015-10-02T03:06:00Z,28.1530,-82.8010,0.315,1111122 
COMPS,ioos:station:USF.COMPS:FHP:1,2015-10-02T03:12:00Z,28.1530,-82.8010,0.338,1111122 
COMPS,ioos:station:USF.COMPS:FHP:1,2015-10-02T03:18:00Z,28.1530,-82.8010,0.353,1111122 
COMPS,ioos:station:USF.COMPS:FHP:1,2015-10-02T03:24:00Z,28.1530,-82.8010,0.373,1111122 
COMPS,ioos:station:USF.COMPS:FHP:1,2015-10-02T03:30:00Z,28.1530,-82.8010,0.392,1111122 
COMPS,ioos:station:USF.COMPS:FHP:1,2015-10-02T03:36:00Z,28.1530,-82.8010,0.408,1111122 
COMPS,ioos:station:USF.COMPS:FHP:1,2015-10-02T03:42:00Z,28.1530,-82.8010,0.428,1111122 
COMPS,ioos:station:USF.COMPS:FHP:1,2015-10-02T03:48:00Z,28.1530,-82.8010,0.446,1111122 
COMPS,ioos:station:USF.COMPS:FHP:1,2015-10-02T03:54:00Z,28.1530,-82.8010,0.463,1111122 
COMPS,ioos:station:USF.COMPS:FHP:1,2015-10-02T04:00:00Z,28.1530,-82.8010,0.484,1111122 
COMPS,ioos:station:USF.COMPS:FHP:1,2015-10-02T04:06:00Z,28.1530,-82.8010,0.5,1111122 
COMPS,ioos:station:USF.COMPS:FHP:1,2015-10-02T04:12:00Z,28.1530,-82.8010,0.516,1111122 
COMPS,ioos:station:USF.COMPS:FHP:1,2015-10-02T04:18:00Z,28.1530,-82.8010,0.54,1111122 
COMPS,ioos:station:USF.COMPS:FHP:1,2015-10-02T04:24:00Z,28.1530,-82.8010,0.558,1111122 